Location: ????????
(55.3155°N, 39.2900°E)
Time: 17:55:21
(UTC+00:00)

ACS3 Solar Sail - Pass Details

Date: 14 November 2025
Orbit: 889 x 1003 km, 97.3° (Epoch: 06 December)

Event Time Altitude Azimuth Distance (km) Brightness Sun altitude
Rises 03:31:36 0° 9° (N) 3,540 4.7 -11.6°
Reaches altitude 10° 03:35:12 10° 346° (NNW) 2,614 3.8 -11.1°
Maximum altitude 03:38:03 14° 316° (NW) 2,342 3.3 -10.7°
Enters shadow 03:39:40 13° 298° (WNW) 2,444 3.3 -10.5°
